Weather History for Victorville, CA

Change the Weather History Date:

Friday, September 6, 2013

  Actual Average (KSBD) Record (KSBD)
Temperature  
Mean Temperature 82 °F -  
Max Temperature 98 °F 94 °F 100 °F (2011)
Min Temperature 66 °F 61 °F 55 °F (2010)
Cooling Degree Days 17    
Growing Degree Days 32 (Base 50)    
Moisture  
Dew Point 46 °F    
Average Humidity 29    
Maximum Humidity 52    
Minimum Humidity 16    
Precipitation  
Precipitation 0.00 in - - ()
Sea Level Pressure  
Sea Level Pressure 29.98 in    
Wind  
Wind Speed 6 mph (SSE)    
Max Wind Speed 22 mph    
Max Gust Speed 26 mph    
Visibility 10 miles    
Events      
Averages and records for this station are not official NWS values.
T = Trace of Precipitation, MM = Missing Value Source: NWS Daily Summary

Daily Weather History Graph

Daily Weather History Graph

Search for Another Location

Airport:

Trip Planner

Search our weather history database for the weather conditions in past years. The results will help you decide how hot, cold, wet, or windy it might be!

Date:

Astronomy

Sep. 06, 2013 Rise Set
Actual Time 6:26 AM PDT 7:08 PM PDT
Civil Twilight 6:00 AM PDT 7:33 PM PDT
Nautical Twilight 5:30 AM PDT 8:03 PM PDT
Astronomical Twilight 4:59 AM PDT 8:34 PM PDT
Moon 7:38 AM PDT (9/6) 7:42 PM PDT (9/6)
Length of Visible Light 13h 33m
Length of Day
12h 42m
New Moon, 2% of the Moon is Illuminated
Sep 6
New Moon
Sep 12
First Quarter
Sep 19
Full
Sep 26
Last Quarter
Oct 4
New

Hourly Weather History & Observations

Time (PDT) Temp. Dew Point Humidity Pressure Visibility Wind Dir Wind Speed Gust Speed Precip Events Conditions
12:15 AM 75.2 °F 51.8 °F 44% 30.02 in 10.0 mi SW 4.6 mph - N/A   Clear
12:35 AM 75.2 °F 51.8 °F 44% 30.02 in 10.0 mi SW 4.6 mph - N/A   Clear
12:55 AM 73.4 °F 51.8 °F 47% 30.02 in 10.0 mi SW 6.9 mph - N/A   Clear
1:15 AM 73.4 °F 51.8 °F 47% 30.01 in 10.0 mi SW 5.8 mph - N/A   Clear
1:35 AM 71.6 °F 51.8 °F 50% 30.01 in 10.0 mi SSW 4.6 mph - N/A   Clear
1:55 AM 71.6 °F 48.2 °F 43% 30.01 in 10.0 mi SSW 5.8 mph - N/A   Clear
2:15 AM 71.6 °F 48.2 °F 43% 30.01 in 10.0 mi Calm Calm - N/A   Clear
2:35 AM 73.4 °F 46.4 °F 38% 30.01 in 10.0 mi Calm Calm - N/A   Clear
2:55 AM 73.4 °F 44.6 °F 36% 30.00 in 10.0 mi Calm Calm - N/A   Clear
3:15 AM 71.6 °F 44.6 °F 38% 30.00 in 10.0 mi Calm Calm - N/A   Clear
3:35 AM 71.6 °F 46.4 °F 41% 30.00 in 10.0 mi Calm Calm - N/A   Clear
3:55 AM 69.8 °F 44.6 °F 40% 30.00 in 10.0 mi South 4.6 mph - N/A   Clear
4:15 AM 73.4 °F 44.6 °F 36% 30.00 in 10.0 mi SSE 6.9 mph - N/A   Clear
4:35 AM 71.6 °F 44.6 °F 38% 30.00 in 10.0 mi SSE 3.5 mph - N/A   Clear
4:55 AM 69.8 °F 44.6 °F 40% 30.00 in 10.0 mi South 4.6 mph - N/A   Clear
5:15 AM 69.8 °F 44.6 °F 40% 30.00 in 10.0 mi South 5.8 mph - N/A   Clear
5:35 AM 69.8 °F 44.6 °F 40% 30.00 in 10.0 mi South 5.8 mph - N/A   Clear
5:55 AM 69.8 °F 46.4 °F 43% 30.01 in 10.0 mi South 3.5 mph - N/A   Clear
6:15 AM 66.2 °F 46.4 °F 49% 30.01 in 10.0 mi South 5.8 mph - N/A   Clear
6:35 AM 68.0 °F 46.4 °F 46% 30.01 in 10.0 mi South 4.6 mph - N/A   Clear
6:55 AM 66.2 °F 48.2 °F 52% 30.02 in 10.0 mi South 3.5 mph - N/A   Clear
7:15 AM 68.0 °F 48.2 °F 49% 30.02 in 10.0 mi South 4.6 mph - N/A   Clear
7:35 AM 71.6 °F 48.2 °F 43% 30.02 in 10.0 mi South 5.8 mph - N/A   Clear
7:55 AM 77.0 °F 48.2 °F 36% 30.02 in 10.0 mi South 3.5 mph - N/A   Clear
8:15 AM 78.8 °F 48.2 °F 34% 30.02 in 10.0 mi SSE 5.8 mph - N/A   Clear
8:35 AM 80.6 °F 48.2 °F 32% 30.02 in 10.0 mi SSE 6.9 mph - N/A   Clear
8:55 AM 82.4 °F 48.2 °F 30% 30.03 in 10.0 mi SSE 8.1 mph - N/A   Clear
9:15 AM 84.2 °F 46.4 °F 27% 30.03 in 10.0 mi SSE 8.1 mph - N/A   Clear
9:35 AM 87.8 °F 46.4 °F 24% 30.03 in 10.0 mi SE 6.9 mph - N/A   Scattered Clouds
9:55 AM 89.6 °F 46.4 °F 22% 30.03 in 10.0 mi SE 5.8 mph - N/A   Scattered Clouds
10:15 AM 89.6 °F 44.6 °F 21% 30.02 in 10.0 mi Calm Calm - N/A   Clear
10:35 AM 91.4 °F 44.6 °F 20% 30.02 in 10.0 mi Calm Calm - N/A   Clear
10:55 AM 91.4 °F 44.6 °F 20% 30.02 in 10.0 mi North 5.8 mph - N/A   Clear
11:15 AM 93.2 °F 42.8 °F 17% 30.02 in 10.0 mi East 4.6 mph - N/A   Clear
11:35 AM 93.2 °F 42.8 °F 17% 30.01 in 10.0 mi North 6.9 mph - N/A   Clear
11:55 AM 95.0 °F 42.8 °F 16% 30.00 in 10.0 mi NNW 4.6 mph - N/A   Scattered Clouds
12:15 PM 95.0 °F 42.8 °F 16% 30.00 in 10.0 mi SW 5.8 mph - N/A   Scattered Clouds
12:35 PM 93.2 °F 42.8 °F 17% 29.99 in 10.0 mi North 3.5 mph - N/A   Clear
12:55 PM 93.2 °F 46.4 °F 20% 29.99 in 10.0 mi South 11.5 mph 18.4 mph N/A   Scattered Clouds
1:15 PM 93.2 °F 48.2 °F 21% 29.99 in 10.0 mi SSE 10.4 mph - N/A   Scattered Clouds
1:35 PM 93.2 °F 46.4 °F 20% 29.98 in 10.0 mi Calm Calm - N/A   Scattered Clouds
1:55 PM 95.0 °F 46.4 °F 19% 29.96 in 10.0 mi NE 5.8 mph - N/A   Scattered Clouds
2:15 PM 98.6 °F 44.6 °F 16% 29.95 in 10.0 mi South 13.8 mph 18.4 mph N/A   Scattered Clouds
2:35 PM 98.6 °F 44.6 °F 16% 29.94 in 10.0 mi South 16.1 mph 21.9 mph N/A   Scattered Clouds
2:55 PM 98.6 °F 44.6 °F 16% 29.93 in 10.0 mi South 18.4 mph - N/A   Scattered Clouds
3:15 PM 96.8 °F 44.6 °F 17% 29.93 in 10.0 mi South 13.8 mph - N/A   Scattered Clouds
3:35 PM 96.8 °F 42.8 °F 16% 29.92 in 10.0 mi South 18.4 mph 23.0 mph N/A   Scattered Clouds
3:55 PM 95.0 °F 42.8 °F 16% 29.92 in 10.0 mi South 19.6 mph - N/A   Scattered Clouds
4:15 PM 93.2 °F 44.6 °F 19% 29.92 in 10.0 mi South 20.7 mph - N/A   Scattered Clouds
4:35 PM 93.2 °F 44.6 °F 19% 29.91 in 10.0 mi South 18.4 mph - N/A   Scattered Clouds
4:55 PM 95.0 °F 42.8 °F 16% 29.91 in 10.0 mi South 21.9 mph - N/A   Scattered Clouds
5:15 PM 95.0 °F 46.4 °F 19% 29.90 in 10.0 mi South 21.9 mph - N/A   Scattered Clouds
5:35 PM 93.2 °F 46.4 °F 20% 29.90 in 10.0 mi South 21.9 mph 26.5 mph N/A   Scattered Clouds
5:55 PM 93.2 °F 48.2 °F 21% 29.91 in 10.0 mi South 19.6 mph - N/A   Scattered Clouds
6:15 PM 91.4 °F 48.2 °F 23% 29.91 in 10.0 mi SSE 19.6 mph 24.2 mph N/A   Scattered Clouds
6:35 PM 91.4 °F 46.4 °F 21% 29.91 in 10.0 mi South 19.6 mph - N/A   Scattered Clouds
6:55 PM 91.4 °F 46.4 °F 21% 29.92 in 10.0 mi South 15.0 mph - N/A   Scattered Clouds
7:15 PM 89.6 °F 46.4 °F 22% 29.92 in 10.0 mi South 11.5 mph 24.2 mph N/A   Scattered Clouds
7:35 PM 89.6 °F 46.4 °F 22% 29.92 in 10.0 mi SSE 16.1 mph 21.9 mph N/A   Clear
7:55 PM 87.8 °F 46.4 °F 24% 29.93 in 10.0 mi East 9.2 mph - N/A   Clear
8:15 PM 87.8 °F 46.4 °F 24% 29.94 in 10.0 mi SSE 5.8 mph - N/A   Clear
8:35 PM 86.0 °F 46.4 °F 25% 29.95 in 10.0 mi Calm Calm - N/A   Clear
8:55 PM 86.0 °F 44.6 °F 23% 29.96 in 10.0 mi ESE 4.6 mph - N/A   Clear
9:15 PM 84.2 °F 46.4 °F 27% 29.96 in 10.0 mi SE 8.1 mph - N/A   Clear
9:35 PM 84.2 °F 46.4 °F 27% 29.97 in 10.0 mi SE 8.1 mph - N/A   Clear
9:55 PM 84.2 °F 46.4 °F 27% 29.98 in 10.0 mi East 3.5 mph - N/A   Clear
10:15 PM 84.2 °F 46.4 °F 27% 29.99 in 10.0 mi ESE 5.8 mph - N/A   Clear
10:35 PM 82.4 °F 46.4 °F 28% 29.99 in 10.0 mi Calm Calm - N/A   Clear
10:55 PM 82.4 °F 46.4 °F 28% 29.99 in 10.0 mi Calm Calm - N/A   Clear
11:15 PM 82.4 °F 46.4 °F 28% 29.99 in 10.0 mi WSW 3.5 mph - N/A   Clear
11:35 PM 78.8 °F 46.4 °F 32% 29.99 in 10.0 mi Calm Calm - N/A   Clear
11:55 PM 78.8 °F 46.4 °F 32% 30.00 in 10.0 mi Calm Calm - N/A   Clear